OBJECT-C, 65490

Orbit data source: Space-Track

OBJECT-C, 65490 is a Chinese satellite in SSO that was launched on Fri, 05 Sep 2025 UTC via a GUSHENXING 1 launch vehicle from the Jiuquan Satellite Launch Center, China (JSC). Unknown objects in Earth's orbit typically refer to objects detected orbiting the Earth but have not yet been identified or cataloged. These objects could be anything from previously untracked satellites, spent rocket stages, debris from satellite collisions, or even natural meteoroids temporarily captured by Earth's gravity.

Loading next visibility...
Identifier
65490, 2025-197C
Orbit
SSO
Country
Flag of CNCN / PRC
Related business
None
Manufacturer
Unknown
Mission
Operational spacecraft
Bus & Motor
Unknown
Mass
Unknown
Launch date (UTC)
2025-09-05 (2 weeks ago)
Launch vehicle
GUSHENXING 1
Launch site
Jiuquan Satellite Launch Center, China (JSC)
Object type
Unknown
Shape & HBR
Unknown
Radar Cross Section
Large (>1 m²)

Expand to show TLE details & history
Last TLE update: 1 week ago

TLE from 1 week ago
0 OBJECT-C
1 65490U 25197C   25251.16005615  .00005255  00000-0  23957-3 0  9993
2 65490  97.4119  76.9333 0014092 282.0844  77.8812 15.20990825   398
Epoch: 2025-09-08T03:50Z
TLE epoch observation values (Epoch: 2025-09-08T03:50:28.851Z)
Latitude
-0.00006°
Longitude
31.84393°
Altitude
503.919 km
Speed
7.613 km/s
True Right ascension
05h 07m 43s
True Declination
0° 00' 00"
Sunlit
Object was in daylight at epoch
Visualization orbit readout
Latitude
Unknown
Longitude
Unknown
Altitude
Unknown
Speed
Unknown
Apparent Right ascension
Unknown
Apparent Declination
Unknown
Sunlit
N/A
Visualization observer readout
Local Sidereal Time
00:43:46
Azimuth
Unknown
Elevation
Unknown
Doppler factor
Unknown
Orbital elements
Apogee altitude
509.508 km
Perigee altitude
490.123 km
Semi-major axis
6,877.952 km
Eccentricity
0.00141
Inclination
97.4119°
RAAN
76.9333°
Arg. of periapsis
282.0844°
True anomaly
78.03914°
Mean anomaly
77.8812°
Eccentric anomaly
77.96017°
Mean motion
3.805 °/min
Orbital period
94.61 mins
BSTAR
0.00023957
Loading maneuver chart data...
Computing Atmospheric mass density...
Loading historical data...
Loading historical data...
Loading historical data...
Loading historical data...
Loading historical data...
Loading historical data...
Loading historical data...
Other satellites on launch #197 in the year 2025 (2025-09-05 UTC)

Documentation

Showing up to 5 results
|